Location: Zagreb
(45.8000°N, 16.0000°E)
Time: 22:52:17
(UTC+02:00)

BlueWalker 3 - Visible Passes

Search period start: 21 April 2024 00:00
Search period end: 01 May 2024 00:00
Orbit: 485 x 495 km, 53.2° (Epoch: 21 April)

Date Brightness Start Highest point End Pass type
(mag) Time Alt. Az. Time Alt. Az. Time Alt. Az.
21 Apr 3.1 21:22:12 10° W 21:25:50 42° NNW 21:29:31 10° NE visible
21 Apr 3.9 23:01:29 10° WNW 23:04:45 26° N 23:05:29 24° NNE visible
22 Apr 3.1 20:57:29 10° W 21:01:08 43° NNW 21:04:49 10° NE visible
22 Apr 3.9 22:36:46 10° WNW 22:40:03 26° N 22:41:47 19° NE visible
23 Apr 4.7 00:15:20 10° NW 00:16:11 15° NW 00:16:11 15° NW visible
23 Apr 3.1 20:32:45 10° W 20:36:25 44° NNW 20:40:07 10° NE visible
23 Apr 3.9 22:12:02 10° WNW 22:15:18 26° N 22:17:57 13° NE visible
23 Apr 4.2 23:50:38 10° NW 23:52:22 23° NW 23:52:22 23° NW visible
24 Apr 3.9 21:47:17 10° WNW 21:50:33 26° N 21:53:50 10° ENE visible
24 Apr 3.7 23:25:54 10° NW 23:28:28 31° NNW 23:28:28 31° NNW visible
25 Apr 3.9 21:22:31 10° WNW 21:25:46 26° N 21:29:04 10° NE visible
25 Apr 3.2 23:01:09 10° NW 23:04:31 37° N 23:04:31 37° N visible
26 Apr 3.9 20:57:43 10° WNW 21:00:59 26° N 21:04:16 10° NE visible
26 Apr 3.1 22:36:22 10° NW 22:39:56 36° NNE 22:40:31 34° NE visible
27 Apr 4.8 00:14:34 10° WNW 00:14:56 12° WNW 00:14:56 12° WNW visible
27 Apr 3.8 20:32:53 10° WNW 20:36:10 26° N 20:39:27 10° NE visible
27 Apr 3.2 22:11:34 10° NW 22:15:08 35° NNE 22:16:31 26° ENE visible
27 Apr 4.3 23:49:46 10° WNW 23:50:55 19° WNW 23:50:55 19° WNW visible
28 Apr 3.2 21:46:45 10° NW 21:50:17 34° NNE 21:52:29 19° ENE visible
28 Apr 3.7 23:24:56 10° WNW 23:26:53 28° WNW 23:26:53 28° WNW visible
29 Apr 3.2 21:21:54 10° NW 21:25:25 34° NNE 21:28:27 13° E visible
29 Apr 2.8 23:00:05 10° WNW 23:02:51 44° WNW 23:02:51 44° WNW visible
30 Apr 3.3 20:57:02 10° NW 21:00:32 33° NNE 21:04:02 10° E visible
30 Apr 1.9 22:35:13 10° WNW 22:38:48 70° WSW 22:38:48 70° WSW visible
